Location: Newark
(55.4390°N, 25.0170°E)
Time: 08:14:15
(UTC+00:00)

Envisat - Pass Details

Date: 29 September 2022
Orbit: 763 x 765 km, 98.2° (Epoch: 02 December)

Event Time Altitude Azimuth Distance (km) Brightness Sun altitude
Rises 01:25:14 0° 24° (NNE) 3,248 7.2 -24.1°
Reaches altitude 10° 01:28:17 10° 43° (NE) 2,316 6.5 -23.7°
Maximum altitude 01:31:46 18° 86° (E) 1,806 5.6 -23.3°
Drops below altitude 10° 01:35:14 10° 130° (SE) 2,304 5.7 -22.9°
Sets 01:38:15 0° 149° (SSE) 3,224 6.2 -22.5°
